GW5243 Weather Reports


Display with metric or nautical units.
time (UTC)temp
F
wind
direction
speed
MPH
gust
MPH
rain 1hr
in
rain 24hr
in
rain mn
in
humidity
%
barometer
mb
20260508153018 51 23 5.0 14.0 0.00 0.00 0.00 37 1008.1
20260508151530 50 290 2.0 11.0 0.00 0.00 0.00 43 1008.0
20260508150028 50 252 4.0 16.0 0.00 0.00 0.00 37 1008.2
20260508144528 50 282 4.0 12.0 0.00 0.00 0.00 38 1008.2
20260508143015 51 277 6.0 13.0 0.00 0.00 0.00 35 1008.4
20260508141520 51 317 5.0 15.0 0.00 0.00 0.00 35 1008.4
20260508140033 51 209 8.0 17.0 0.00 0.00 0.00 37 1008.3
20260508134526 50 176 4.0 9.0 0.00 0.00 0.00 39 1008.5
20260508133026 50 142 2.0 8.0 0.00 0.00 0.00 44 1008.7
20260508131518 48 315 2.0 8.0 0.00 0.00 0.00 50 1008.9
20260508130035 47 254 2.0 6.0 0.00 0.00 0.00 55 1009.1
20260508124533 45 218 2.0 6.0 0.00 0.00 0.00 58 1009.0
20260508123034 44 128 0.0 3.0 0.00 0.00 0.00 60 1009.0
20260508121528 44 337 1.0 5.0 0.00 0.00 0.00 60 1009.0
20260508120019 42 336 1.0 6.0 0.00 0.00 0.00 66 1009.0
20260508114527 41 352 0.0 8.0 0.00 0.00 0.00 67 1009.0
20260508113024 39 211 1.0 6.0 0.00 0.00 0.00 71 1008.8
20260508111526 35 284 0.0 4.0 0.00 0.00 0.00 82 1008.8
20260508110004 31 5 0.0 1.0 0.00 0.00 0.00 95 1008.7
20260508104504 30 24 0.0 2.0 0.00 0.00 0.00 95 1008.5
20260508103009 29 36 0.0 0.0 0.00 0.00 0.00 94 1008.4
20260508101527 0 0.0 0.0 0.00 0.00 0.00 1008.4
20260508100029 0 0.0 0.0 0.00 0.00 0.00 1008.1
20260508094542 0 0.0 0.0 0.00 0.00 0.00 1007.9
20260508093032 0 0.0 0.0 0.00 0.00 0.00 1007.7
20260508091547 0 0.0 0.0 0.00 0.00 0.00 1007.7
20260508090037 0 0.0 0.0 0.00 0.00 0.00 1007.7
20260508084530 0 0.0 0.0 0.00 0.00 0.00 1007.7
20260508083030 0 0.0 0.0 0.00 0.00 0.00 1007.7
20260508081538 0 0.0 0.0 0.00 0.00 0.00 1007.6
20260508080040 28 0.0 0.0 0.00 0.00 0.00 1007.4
20260508074506 28 340 0.0 0.0 0.00 0.00 0.00 92 1007.1
20260508073011 29 340 0.0 0.0 0.00 0.00 0.00 91 1007.2
20260508071521 29 340 0.0 0.0 0.00 0.00 0.00 91 1007.2
20260508070023 29 340 0.0 2.0 0.00 0.00 0.00 91 1007.3
20260508064507 29 275 0.0 0.0 0.00 0.00 0.00 90 1007.3
20260508063007 30 275 0.0 0.0 0.00 0.00 0.00 89 1007.3
20260508061516 30 275 0.0 0.0 0.00 0.00 0.00 88 1007.3
20260508060023 31 275 0.0 0.0 0.00 0.00 0.00 89 1007.2
20260508054529 31 275 0.0 0.0 0.00 0.00 0.00 89 1007.3
20260508053006 31 275 0.0 0.0 0.00 0.00 0.00 87 1007.7
20260508051506 31 275 0.0 0.0 0.00 0.00 0.00 86 1007.9
20260508050013 32 275 0.0 0.0 0.00 0.00 0.00 86 1008.0
20260508044518 32 275 0.0 0.0 0.00 0.00 0.00 85 1008.1
20260508043020 33 275 0.0 0.0 0.00 0.00 0.00 81 1007.9
20260508041506 34 275 0.0 0.0 0.00 0.00 0.00 80 1008.0
20260508040019 34 275 0.0 0.0 0.00 0.00 0.00 79 1008.0
20260508034519 35 275 0.0 0.0 0.00 0.00 0.00 78 1008.1
20260508033021 36 275 0.0 0.0 0.00 0.00 0.00 78 1008.0
20260508031522 36 275 0.0 2.0 0.00 0.00 0.00 76 1007.9
20260508030011 37 275 0.0 0.0 0.00 0.00 0.00 75 1008.0
20260508024518 38 275 0.0 0.0 0.00 0.01 0.00 73 1008.1
20260508023020 39 275 0.0 2.0 0.00 0.02 0.00 72 1008.1
20260508021522 40 291 0.0 2.0 0.00 0.04 0.00 71 1008.1
20260508020024 41 293 1.0 2.0 0.00 0.04 0.00 64 1007.8
20260508014511 41 287 0.0 2.0 0.00 0.05 0.00 66 1007.4
20260508013012 42 277 0.0 2.0 0.00 0.06 0.00 65 1007.4
20260508011519 44 313 0.0 2.0 0.00 0.08 0.00 57 1007.3
20260508010023 45 293 1.0 2.0 0.00 0.09 0.00 51 1007.1
20260508004525 46 263 0.0 4.0 0.00 0.09 0.00 55 1006.9
20260508003011 47 28 1.0 4.0 0.00 0.10 0.00 49 1006.8
20260508001532 48 345 1.0 3.0 0.00 0.10 0.00 41 1006.6
20260508000021 49 11 0.0 4.0 0.00 0.10 0.00 45 1006.4
20260507234523 51 352 2.0 6.0 0.00 0.10 0.00 39 1006.1
20260507233030 51 55 2.0 9.0 0.00 0.12 0.00 37 1005.9
20260507231513 52 334 1.0 13.0 0.00 0.18 0.00 38 1005.7
20260507230027 52 222 3.0 9.0 0.00 0.23 0.00 38 1005.7
20260507224529 54 257 1.0 8.0 0.00 0.23 0.00 37 1005.6
20260507223024 55 26 3.0 7.0 0.00 0.24 0.00 36 1005.7
20260507221528 54 287 4.0 9.0 0.00 0.26 0.00 36 1005.6
20260507220018 54 273 3.0 8.0 0.00 0.27 0.00 37 1005.6
20260507214522 54 219 4.0 12.0 0.00 0.28 0.00 37 1005.6
20260507213031 55 241 4.0 9.0 0.00 0.28 0.00 36 1005.5
20260507211532 56 188 2.0 9.0 0.00 0.28 0.00 34 1005.6
20260507210028 56 318 4.0 14.0 0.00 0.28 0.00 35 1005.5
20260507204517 55 292 4.0 9.0 0.00 0.29 0.00 38 1005.6
20260507203024 57 9 2.0 9.0 0.00 0.30 0.00 39 1005.3
20260507201535 56 230 2.0 11.0 0.00 0.33 0.00 38 1005.2
20260507200033 55 290 4.0 11.0 0.00 0.34 0.00 36 1005.3
20260507194528 56 294 4.0 10.0 0.00 0.34 0.00 40 1005.4
20260507193023 56 232 4.0 9.0 0.00 0.34 0.00 38 1005.5
20260507191525 55 175 5.0 12.0 0.00 0.34 0.00 38 1005.7
20260507190026 56 300 4.0 10.0 0.00 0.37 0.00 38 1005.7
20260507184514 54 263 2.0 14.0 0.00 0.40 0.00 38 1005.9
20260507183017 55 59 5.0 12.0 0.00 0.44 0.00 38 1006.1
20260507181522 52 299 2.0 10.0 0.00 0.45 0.00 43 1006.2
20260507180039 53 41 2.0 8.0 0.00 0.47 0.00 42 1006.0
20260507174528 53 298 4.0 11.0 0.00 0.49 0.00 43 1006.3
20260507173022 54 209 6.0 14.0 0.00 0.52 0.00 44 1006.1
20260507171520 55 345 4.0 11.0 0.00 0.56 0.00 42 1006.3
20260507170041 55 304 5.0 16.0 0.00 0.60 0.00 41 1006.6
20260507164526 54 115 6.0 12.0 0.00 0.62 0.00 44 1006.8
20260507163028 53 338 3.0 14.0 0.00 0.64 0.00 54 1006.9
20260507161520 53 330 3.0 9.0 0.00 0.65 0.00 48 1007.0
20260507160025 52 279 3.0 8.0 0.00 0.65 0.00 50 1007.1
20260507154524 52 311 3.0 12.0 0.00 0.65 0.00 49 1007.4
20260507153027 52 229 3.0 10.0 0.00 0.65 0.00 49 1007.5